| time (UTC) | temp C | wind direction | speed KPH | gust KPH | rain 1hr cm | rain 24hr cm | rain mn cm | humidity % | barometer mb |
| 20260505095120 | 31 | 0.0 | 0.0 | 0.00 | 0.00 | 0.00 | 28 | 1004.4 | |
| 20260505094417 | 31 | 0.0 | 0.0 | 0.00 | 0.00 | 0.00 | 29 | 1004.5 | |
| 20260505093417 | 31 | 0.0 | 0.0 | 0.00 | 0.00 | 0.00 | 29 | 1004.5 | |
| 20260505092421 | 30 | 0.0 | 0.0 | 0.00 | 0.00 | 0.00 | 31 | 1004.6 | |
| 20260505091922 | 30 | 0.0 | 0.0 | 0.00 | 0.00 | 0.00 | 30 | 1004.6 | |
| 20260505091424 | 30 | 0.0 | 0.0 | 0.00 | 0.00 | 0.00 | 32 | 1004.6 | |
| 20260505090926 | 30 | 0.0 | 0.0 | 0.00 | 0.00 | 0.00 | 32 | 1005.0 | |
| 20260505090425 | 30 | 0.0 | 0.0 | 0.00 | 0.00 | 0.00 | 33 | 1005.0 | |
| 20260505085925 | 28 | 0.0 | 0.0 | 0.00 | 0.00 | 0.00 | 36 | 1004.9 | |
| 20260505084920 | 26 | 0.0 | 0.0 | 0.00 | 0.00 | 0.00 | 41 | 1005.2 | |
| 20260505084418 | 23 | 0.0 | 0.0 | 0.00 | 0.00 | 0.00 | 45 | 1005.1 | |
| 20260505083924 | 21 | 0.0 | 0.0 | 0.00 | 0.00 | 0.00 | 45 | 1004.9 | |
| 20260505083425 | 20 | 0.0 | 0.0 | 0.00 | 0.00 | 0.00 | 47 | 1004.9 | |
| 20260505082423 | 20 | 0.0 | 0.0 | 0.00 | 0.00 | 0.00 | 45 | 1004.8 | |
| 20260505081418 | 20 | 0.0 | 0.0 | 0.00 | 0.00 | 0.00 | 46 | 1004.8 | |
| 20260505080924 | 20 | 0.0 | 0.0 | 0.00 | 0.00 | 0.00 | 47 | 1005.2 | |
| 20260505080423 | 19 | 0.0 | 0.0 | 0.00 | 0.00 | 0.00 | 47 | 1005.1 | |
| 20260505075922 | 18 | 0.0 | 0.0 | 0.00 | 0.00 | 0.00 | 49 | 1005.1 | |
| 20260505075426 | 18 | 0.0 | 0.0 | 0.00 | 0.00 | 0.00 | 49 | 1005.1 | |
| 20260505074927 | 18 | 0.0 | 0.0 | 0.00 | 0.00 | 0.00 | 48 | 1005.2 | |
| 20260505074425 | 18 | 0.0 | 0.0 | 0.00 | 0.00 | 0.00 | 48 | 1005.2 | |
| 20260505073918 | 18 | 0.0 | 0.0 | 0.00 | 0.00 | 0.00 | 48 | 1005.2 | |
| 20260505073425 | 18 | 0.0 | 0.0 | 0.00 | 0.00 | 0.00 | 48 | 1005.2 | |
| 20260505072420 | 18 | 0.0 | 0.0 | 0.00 | 0.00 | 0.00 | 49 | 1004.9 | |
| 20260505071923 | 18 | 0.0 | 0.0 | 0.00 | 0.00 | 0.00 | 48 | 1004.9 | |
| 20260505071424 | 18 | 0.0 | 0.0 | 0.00 | 0.00 | 0.00 | 47 | 1004.9 | |
| 20260505070922 | 18 | 0.0 | 0.0 | 0.00 | 0.00 | 0.00 | 47 | 1005.2 | |
| 20260505070422 | 19 | 0.0 | 0.0 | 0.00 | 0.00 | 0.00 | 46 | 1005.2 | |
| 20260505065926 | 18 | 0.0 | 0.0 | 0.00 | 0.00 | 0.00 | 48 | 1005.2 | |
| 20260505065427 | 18 | 0.0 | 0.0 | 0.00 | 0.00 | 0.00 | 49 | 1005.2 | |
| 20260505064925 | 18 | 0.0 | 0.0 | 0.00 | 0.00 | 0.00 | 48 | 1005.2 | |
| 20260505063918 | 18 | 0.0 | 0.0 | 0.00 | 0.00 | 0.00 | 49 | 1005.2 | |
| 20260505063426 | 17 | 0.0 | 0.0 | 0.00 | 0.00 | 0.00 | 51 | 1005.2 | |
| 20260505062926 | 17 | 0.0 | 0.0 | 0.00 | 0.00 | 0.00 | 52 | 1004.9 | |
| 20260505061918 | 16 | 0.0 | 0.0 | 0.00 | 0.00 | 0.00 | 55 | 1004.9 | |
| 20260505060916 | 15 | 0.0 | 0.0 | 0.00 | 0.00 | 0.00 | 60 | 1004.7 | |
| 20260505055919 | 15 | 0.0 | 0.0 | 0.00 | 0.00 | 0.00 | 62 | 1004.6 | |
| 20260505054920 | 13 | 0.0 | 0.0 | 0.00 | 0.00 | 0.00 | 66 | 1004.7 | |
| 20260505053621 | 13 | 0.0 | 0.0 | 0.00 | 0.00 | 0.00 | 68 | 1004.7 | |
| 20260505052916 | 12 | 0.0 | 0.0 | 0.00 | 0.00 | 0.00 | 68 | 1004.7 | |
| 20260505051917 | 12 | 0.0 | 0.0 | 0.00 | 0.00 | 0.00 | 69 | 1004.7 | |
| 20260505050916 | 11 | 0.0 | 0.0 | 0.00 | 0.00 | 0.00 | 69 | 1004.6 | |
| 20260505041422 | 11 | 0.0 | 0.0 | 0.00 | 0.00 | 0.00 | 70 | 1004.9 | |
| 20260505040417 | 11 | 0.0 | 0.0 | 0.00 | 0.00 | 0.00 | 70 | 1004.7 | |
| 20260505035925 | 11 | 0.0 | 0.0 | 0.00 | 0.00 | 0.00 | 70 | 1004.7 | |
| 20260505034918 | 11 | 0.0 | 0.0 | 0.00 | 0.00 | 0.00 | 70 | 1004.8 | |
| 20260505033917 | 11 | 0.0 | 0.0 | 0.00 | 0.00 | 0.00 | 70 | 1004.8 | |
| 20260505032917 | 11 | 0.0 | 0.0 | 0.00 | 0.00 | 0.00 | 70 | 1004.8 | |
| 20260505032418 | 11 | 0.0 | 0.0 | 0.00 | 0.00 | 0.00 | 70 | 1004.8 | |
| 20260505031924 | 11 | 0.0 | 0.0 | 0.00 | 0.00 | 0.00 | 70 | 1004.8 | |
| 20260505030917 | 11 | 0.0 | 0.0 | 0.00 | 0.00 | 0.00 | 71 | 1005.1 | |
| 20260505025921 | 11 | 0.0 | 0.0 | 0.00 | 0.00 | 0.00 | 70 | 1005.1 | |
| 20260505025425 | 11 | 0.0 | 0.0 | 0.00 | 0.00 | 0.00 | 70 | 1005.0 | |
| 20260505024926 | 11 | 0.0 | 0.0 | 0.00 | 0.00 | 0.00 | 70 | 1005.1 | |
| 20260505024422 | 11 | 0.0 | 0.0 | 0.00 | 0.00 | 0.00 | 69 | 1005.1 | |
| 20260505023926 | 11 | 0.0 | 0.0 | 0.00 | 0.00 | 0.00 | 69 | 1005.1 | |
| 20260505023427 | 11 | 0.0 | 0.0 | 0.00 | 0.00 | 0.00 | 69 | 1005.1 | |
| 20260505022923 | 11 | 0.0 | 0.0 | 0.00 | 0.00 | 0.00 | 70 | 1005.1 | |
| 20260505022422 | 11 | 0.0 | 0.0 | 0.00 | 0.00 | 0.00 | 70 | 1005.1 | |
| 20260505021922 | 11 | 0.0 | 0.0 | 0.00 | 0.00 | 0.00 | 70 | 1005.1 | |
| 20260505021424 | 11 | 0.0 | 0.0 | 0.00 | 0.00 | 0.00 | 69 | 1005.1 | |
| 20260505020922 | 11 | 0.0 | 0.0 | 0.00 | 0.00 | 0.00 | 69 | 1005.4 | |
| 20260505020425 | 11 | 0.0 | 0.0 | 0.00 | 0.00 | 0.00 | 69 | 1005.4 | |
| 20260505015925 | 11 | 0.0 | 0.0 | 0.00 | 0.00 | 0.00 | 68 | 1005.4 | |
| 20260505014916 | 12 | 0.0 | 0.0 | 0.00 | 0.00 | 0.00 | 68 | 1005.5 | |
| 20260505013917 | 12 | 0.0 | 0.0 | 0.00 | 0.00 | 0.00 | 68 | 1005.5 | |
| 20260505012918 | 12 | 0.0 | 0.0 | 0.00 | 0.00 | 0.00 | 68 | 1005.5 | |
| 20260505011922 | 12 | 0.0 | 0.0 | 0.00 | 0.00 | 0.00 | 67 | 1005.5 | |
| 20260505011425 | 12 | 0.0 | 0.0 | 0.00 | 0.00 | 0.00 | 67 | 1005.5 | |
| 20260505010921 | 12 | 0.0 | 0.0 | 0.00 | 0.00 | 0.00 | 67 | 1005.6 | |
| 20260505005921 | 12 | 0.0 | 0.0 | 0.00 | 0.00 | 0.00 | 66 | 1005.6 | |
| 20260505005425 | 12 | 0.0 | 0.0 | 0.00 | 0.00 | 0.00 | 66 | 1005.6 | |
| 20260505004924 | 12 | 0.0 | 0.0 | 0.00 | 0.00 | 0.00 | 66 | 1006.0 | |
| 20260505004427 | 12 | 0.0 | 0.0 | 0.00 | 0.00 | 0.00 | 66 | 1006.0 | |
| 20260505003417 | 12 | 0.0 | 0.0 | 0.00 | 0.00 | 0.00 | 65 | 1006.0 | |
| 20260505002417 | 12 | 0.0 | 0.0 | 0.00 | 0.00 | 0.00 | 65 | 1006.3 | |
| 20260505001926 | 13 | 0.0 | 0.0 | 0.00 | 0.00 | 0.00 | 65 | 1006.4 | |
| 20260505001426 | 13 | 0.0 | 0.0 | 0.00 | 0.00 | 0.00 | 65 | 1006.4 | |
| 20260505000420 | 13 | 0.0 | 0.0 | 0.00 | 0.00 | 0.00 | 63 | 1006.3 | |
| 20260504235925 | 13 | 0.0 | 0.0 | 0.00 | 0.00 | 0.00 | 63 | 1006.3 | |
| 20260504234919 | 13 | 0.0 | 0.0 | 0.00 | 0.00 | 0.00 | 63 | 1006.4 | |
| 20260504233921 | 13 | 0.0 | 0.0 | 0.00 | 0.00 | 0.00 | 61 | 1006.5 | |
| 20260504232618 | 13 | 0.0 | 0.0 | 0.00 | 0.00 | 0.00 | 60 | 1006.4 | |
| 20260504231618 | 14 | 0.0 | 0.0 | 0.00 | 0.00 | 0.00 | 58 | 1006.5 | |
| 20260504230916 | 14 | 0.0 | 0.0 | 0.00 | 0.00 | 0.00 | 58 | 1006.6 | |
| 20260504225921 | 14 | 0.0 | 0.0 | 0.00 | 0.00 | 0.00 | 57 | 1006.6 | |
| 20260504225426 | 14 | 0.0 | 0.0 | 0.00 | 0.00 | 0.00 | 57 | 1006.6 | |
| 20260504224926 | 14 | 0.0 | 0.0 | 0.00 | 0.00 | 0.00 | 57 | 1006.8 | |
| 20260504224424 | 14 | 0.0 | 0.0 | 0.00 | 0.00 | 0.00 | 57 | 1006.8 | |
| 20260504223926 | 14 | 0.0 | 0.0 | 0.00 | 0.00 | 0.00 | 57 | 1006.8 | |
| 20260504223425 | 14 | 0.0 | 0.0 | 0.00 | 0.00 | 0.00 | 57 | 1006.8 | |
| 20260504222416 | 14 | 0.0 | 0.0 | 0.00 | 0.00 | 0.00 | 58 | 1006.9 | |
| 20260504221421 | 14 | 0.0 | 0.0 | 0.00 | 0.00 | 0.00 | 58 | 1006.9 | |
| 20260504220921 | 15 | 0.0 | 0.0 | 0.00 | 0.00 | 0.00 | 58 | 1007.1 | |
| 20260504215921 | 15 | 0.0 | 0.0 | 0.00 | 0.00 | 0.00 | 59 | 1007.1 | |
| 20260504215223 | 15 | 0.0 | 0.0 | 0.00 | 0.00 | 0.00 | 59 | 1007.1 | |
| 20260504213916 | 15 | 0.0 | 0.0 | 0.00 | 0.00 | 0.00 | 58 | 1007.4 | |
| 20260504213424 | 15 | 0.0 | 0.0 | 0.00 | 0.00 | 0.00 | 59 | 1007.4 | |
| 20260504212926 | 15 | 0.0 | 0.0 | 0.00 | 0.00 | 0.00 | 59 | 1007.3 | |
| 20260504211919 | 15 | 0.0 | 0.0 | 0.00 | 0.00 | 0.00 | 58 | 1007.4 | |
| 20260504211425 | 15 | 0.0 | 0.0 | 0.00 | 0.00 | 0.00 | 58 | 1007.4 | |
| 20260504210420 | 15 | 0.0 | 0.0 | 0.00 | 0.00 | 0.00 | 58 | 1007.6 | |
| 20260504205924 | 15 | 0.0 | 0.0 | 0.00 | 0.00 | 0.00 | 56 | 1008.4 | |
| 20260504204918 | 16 | 0.0 | 0.0 | 0.00 | 0.00 | 0.00 | 55 | 1008.4 | |
| 20260504203918 | 16 | 0.0 | 0.0 | 0.00 | 0.00 | 0.00 | 54 | 1008.4 | |
| 20260504203425 | 16 | 0.0 | 0.0 | 0.00 | 0.00 | 0.00 | 55 | 1008.4 | |
| 20260504202422 | 16 | 0.0 | 0.0 | 0.00 | 0.00 | 0.00 | 54 | 1008.5 | |
| 20260504201925 | 16 | 0.0 | 0.0 | 0.00 | 0.00 | 0.00 | 54 | 1008.5 | |
| 20260504201425 | 16 | 0.0 | 0.0 | 0.00 | 0.00 | 0.00 | 54 | 1008.5 | |
| 20260504200525 | 16 | 0.0 | 0.0 | 0.00 | 0.00 | 0.00 | 53 | 1008.4 | |
| 20260504195418 | 16 | 0.0 | 0.0 | 0.00 | 0.00 | 0.00 | 53 | 1008.5 | |
| 20260504194925 | 16 | 0.0 | 0.0 | 0.00 | 0.00 | 0.00 | 53 | 1008.5 | |
| 20260504194424 | 16 | 0.0 | 0.0 | 0.00 | 0.00 | 0.00 | 53 | 1008.5 | |
| 20260504193927 | 17 | 0.0 | 0.0 | 0.00 | 0.00 | 0.00 | 52 | 1008.4 | |
| 20260504193426 | 17 | 0.0 | 0.0 | 0.00 | 0.00 | 0.00 | 52 | 1008.4 | |
| 20260504192926 | 17 | 0.0 | 0.0 | 0.00 | 0.00 | 0.00 | 52 | 1008.2 | |
| 20260504192425 | 17 | 0.0 | 0.0 | 0.00 | 0.00 | 0.00 | 51 | 1008.1 | |
| 20260504191922 | 17 | 0.0 | 0.0 | 0.00 | 0.00 | 0.00 | 51 | 1008.1 | |
| 20260504191423 | 17 | 0.0 | 0.0 | 0.00 | 0.00 | 0.00 | 50 | 1008.1 | |
| 20260504190927 | 17 | 0.0 | 0.0 | 0.00 | 0.00 | 0.00 | 50 | 1008.1 | |
| 20260504185916 | 17 | 0.0 | 0.0 | 0.00 | 0.00 | 0.00 | 49 | 1008.0 | |
| 20260504184916 | 18 | 0.0 | 0.0 | 0.00 | 0.00 | 0.00 | 48 | 1008.0 | |
| 20260504183917 | 18 | 0.0 | 0.0 | 0.00 | 0.00 | 0.00 | 48 | 1007.6 | |
| 20260504182917 | 18 | 0.0 | 0.0 | 0.00 | 0.00 | 0.00 | 46 | 1007.1 | |
| 20260504181920 | 19 | 0.0 | 0.0 | 0.00 | 0.00 | 0.00 | 44 | 1007.1 | |
| 20260504181423 | 19 | 0.0 | 0.0 | 0.00 | 0.00 | 0.00 | 44 | 1007.1 | |
| 20260504180928 | 20 | 0.0 | 0.0 | 0.00 | 0.00 | 0.00 | 44 | 1007.2 | |
| 20260504175916 | 20 | 0.0 | 0.0 | 0.00 | 0.00 | 0.00 | 41 | 1007.2 | |
| 20260504174918 | 20 | 0.0 | 0.0 | 0.00 | 0.00 | 0.00 | 39 | 1007.2 | |
| 20260504174422 | 21 | 0.0 | 0.0 | 0.00 | 0.00 | 0.00 | 39 | 1007.1 | |
| 20260504173925 | 21 | 0.0 | 0.0 | 0.00 | 0.00 | 0.00 | 38 | 1007.1 | |
| 20260504173425 | 21 | 0.0 | 0.0 | 0.00 | 0.00 | 0.00 | 37 | 1007.1 | |
| 20260504172417 | 21 | 0.0 | 0.0 | 0.00 | 0.00 | 0.00 | 38 | 1007.4 | |
| 20260504171925 | 21 | 0.0 | 0.0 | 0.00 | 0.00 | 0.00 | 38 | 1007.2 | |
| 20260504170916 | 21 | 0.0 | 0.0 | 0.00 | 0.00 | 0.00 | 37 | 1007.3 | |
| 20260504150417 | 24 | 0.0 | 0.0 | 0.00 | 0.00 | 0.00 | 36 | 1007.5 | |
| 20260504140917 | 23 | 0.0 | 0.0 | 0.00 | 0.00 | 0.00 | 36 | 1008.1 | |
| 20260504140423 | 24 | 0.0 | 0.0 | 0.00 | 0.00 | 0.00 | 37 | 1008.2 | |
| 20260504130724 | 24 | 0.0 | 0.0 | 0.00 | 0.00 | 0.00 | 37 | 1008.6 | |
| 20260504110426 | 25 | 0.0 | 0.0 | 0.00 | 0.00 | 0.00 | 38 | 1009.9 | |
| 20260504100522 | 25 | 0.0 | 0.0 | 0.00 | 0.00 | 0.00 | 38 | 1010.6 |